Showing default

QIANFAN-32, 61565

Orbit data source: Space-Track

QIANFAN-32, 61565 is a Chinese payload satellite in LEO that was launched on Tue, 15 Oct 2024 UTC via a CHANG ZHENG 6A launch vehicle from the Taiyaun Space Center, China (TSC). Payloads include a variety of satellites, spacecraft, and rockets equipped with specific instruments for various scientific and technological missions. These include communications satellites like Starlink; space stations such as the ISS; scientific satellites like the Hubble; Earth observation satellites from companies like Planet Labs, Umbra, and HawkEye 360; GPS; miniature CubeSats for education and research; and military/defense satellites.

Loading next visibility...
QIANFAN-32 details
Identifier
61565, 2024-185P
Orbit
LEO
Last TLE update11 hours ago
Origin
Flag of CNYUANX (CN / PRC)
ManufacturerGESIH/SECM
MissionOperational Commercial Communications
Bus & MotorQIANFAN, Unknown motor
Mass300 kg wet, ~300 kg dry
Launch date (UTC)
2024-10-15 (4 months ago)
Launch vehicle
CHANG ZHENG 6A
Launch site
Taiyaun Space Center, China (TSC)
Object type
Payload
Rocket body
Debris
Shape & HBRBox + 1 Pan, 10 m
Radar Cross Section13.200 m², Large (>1 m²)

Expand to show TLE details & history

TLE from 11 hours ago
0 QIANFAN-32
1 61565U 24185P   25035.79916930  .00000191  00000-0  96847-4 0  9991
2 61565  88.9874 113.4279 0007185 209.3869 150.6913 14.11845050 25779
Epoch: 2025-02-04T19:10Z
Definitive object data (Epoch: 2025-02-04T19:10:48.227Z)
Latitude-0.00007°
Longitude50.52768°
Altitude860.639 km
Speed7.42 km/s
True Right ascension07h 33m 42s
True Declination0° 00' 00"
Sunlit
Object was in full shadow at TLE epoch
Visualization TLE readout
Latitude39.55313°
Longitude-130.35564°
Altitude856.768 km
Speed7.429 km/s
Apparent Right ascension19h 46m 29s
Apparent Declination2° 49' 06"
Sunlit
Object is in daylight
Visualization observer readout
Local Sidereal Time08:05:06
Azimuth6.828° NNE
Elevation-47.053°
Doppler factor1
Orbital elements
Apogee altitude855.221 km
Perigee altitude844.834 km
Semi-major axis7,228.165 km
Eccentricity0.0007185
Inclination88.9874°
RAAN113.4279°
Arg. of periapsis209.3869°
True anomaly150.73157°
Mean anomaly150.6913°
Eccentric anomaly150.71144°
Mean motion3.53184 °/min
BSTAR0.000096847
Orbital period101.93 mins
Loading maneuver chart data...
Loading historical data...
Loading historical data...
Loading historical data...
Loading historical data...
Loading historical data...
Loading historical data...
Loading historical data...

QIANFAN-32 Visibility forecast

Observer location: undefined°, undefined

Span
Click to sort rows by Start time (UTC) header in descending order
Start Az.
Max El. time (UTC)
Max El. Az.
Max El.
End time (UTC)
End Az.
7 mins2025-02-05 16:11:59.474Z41.852° NE2025-02-05 16:14:59.474Z80.904° E19.733°2025-02-05 16:18:59.474Z127.907° SE
9 mins2025-02-05 17:52:59.474Z344.39° N2025-02-05 17:56:59.474Z282.049° WNW36.129°2025-02-05 18:01:59.474Z206.227° SW
9 mins2025-02-06 05:18:59.474Z171.329° S2025-02-06 05:22:59.474Z124.543° SE44.079°2025-02-06 05:27:59.474Z2.522° NNE
|